Theta_e
352 357 362 361 362 363 364 363 364 364 363 363 364 364 362 362 362 364 364 363 364 364 361 361 361 360 360 360 359 359 357 361 360 360 362 364 364 363 363 360 357 355 359
353 358 363 364 364 365 365 364 364 364 363 364 363 362 363 361 362 362 363 363 362 363 362 361 361 360 359 359 359 359 357 356 359 359 359 357 357 359 358 357 354 357 358
353 358 361 366 364 364 366 365 363 364 363 362 362 361 362 363 360 361 362 362 362 362 362 361 360 358 358 358 358 358 358 356 361 359 357 357 353 355 356 354 354 358 358
355 356 359 366 366 363 362 365 363 362 363 362 362 361 362 360 360 359 359 359 359 360 361 360 358 356 357 358 357 357 358 359 358 350 351 350 351 350 351 353 354 355 358
355 356 362 367 368 363 364 364 364 363 362 362 362 362 359 353 356 357 357 358 357 356 358 358 358 356 356 356 356 356 355 358 357 348 346 350 350 348 349 353 353 354 359
355 357 363 365 365 364 364 364 364 363 362 361 360 358 357 353 348 349 354 356 357 357 358 358 358 357 355 355 357 356 355 357 356 353 350 344 353 350 350 352 357 354 358
353 358 362 367 366 364 364 363 363 363 362 361 359 356 355 354 352 350 353 354 356 356 356 357 356 356 357 356 356 356 354 354 356 351 346 346 351 355 351 352 357 355 358
354 357 361 365 364 363 363 363 363 362 362 359 357 355 355 354 354 353 355 354 355 356 356 356 357 358 359 357 356 355 353 355 354 353 347 347 352 355 357 357 357 357 357
355 358 360 361 363 364 364 363 364 362 361 359 358 356 355 354 355 355 355 356 356 358 357 357 357 357 357 356 355 354 355 354 352 349 347 352 350 355 355 358 358 358 357
356 359 361 362 362 363 363 363 362 362 361 358 357 357 354 351 351 358 358 357 356 355 355 356 357 357 356 355 354 354 357 351 350 351 351 353 353 358 356 357 357 357 356
355 357 359 362 364 364 363 363 362 360 360 359 358 356 354 353 356 356 356 358 358 356 356 356 356 357 356 355 353 354 357 353 347 350 350 350 356 358 359 358 357 357 357
350 354 356 358 360 359 357 364 363 361 359 361 360 359 355 356 356 353 356 356 356 356 357 357 357 357 356 356 354 356 357 352 347 347 347 346 355 357 359 359 357 357 358
349 351 353 358 360 361 358 360 360 360 360 358 358 356 354 351 354 357 357 360 359 357 358 356 355 357 357 358 356 355 356 354 354 351 349 345 353 357 357 357 357 356 356
348 351 354 357 358 361 360 359 359 357 357 356 355 356 353 350 355 356 357 358 357 357 356 357 356 357 357 357 355 356 353 355 355 355 350 350 355 356 356 357 356 355 354
349 351 354 356 358 358 361 358 358 356 356 355 354 354 355 352 354 354 355 356 355 354 353 356 355 356 357 356 356 355 355 355 354 355 354 355 357 356 357 357 357 356 355
350 350 353 355 357 358 358 359 359 357 357 355 354 353 351 355 356 355 352 351 353 356 356 356 358 354 356 357 355 354 355 354 354 356 355 356 357 356 356 354 353 355 355
350 351 352 353 356 356 357 358 358 358 356 354 352 355 349 352 356 354 352 351 352 356 357 357 356 348 349 353 352 352 354 353 353 355 355 354 356 356 356 356 354 354 353
349 350 352 351 353 355 356 359 356 357 357 354 354 353 350 357 355 351 354 352 353 356 357 356 354 352 347 348 353 356 357 355 354 355 355 352 354 352 356 356 355 354 353
349 351 351 353 353 355 356 358 355 356 360 355 355 352 353 355 353 352 354 354 356 357 356 354 347 350 348 352 351 354 356 355 354 352 353 353 353 353 352 355 356 356 356
349 351 352 352 354 356 355 356 352 353 358 357 354 353 353 351 354 357 351 351 357 354 354 354 350 353 353 352 349 351 354 355 355 355 350 350 352 351 350 353 352 353 358
349 350 351 353 354 353 351 349 349 346 351 352 352 353 354 353 355 357 351 346 349 353 355 355 354 351 351 354 349 349 351 354 353 354 355 352 351 351 351 351 351 350 352
347 350 351 353 353 353 352 351 351 352 352 352 352 351 354 353 356 354 353 350 352 353 356 356 355 349 350 351 348 349 341 347 350 352 354 351 351 351 351 352 351 352 352
346 349 351 353 353 353 353 351 351 354 352 348 348 349 352 353 355 351 351 347 352 355 354 355 354 351 344 346 347 345 340 342 345 351 351 352 353 353 353 353 353 352 353
347 349 351 352 352 351 352 350 350 346 344 345 347 349 352 355 352 352 352 347 352 348 354 357 356 351 346 341 344 345 347 346 346 340 348 350 351 352 354 354 354 354 356
347 347 350 352 351 351 350 352 349 348 347 348 349 352 352 355 353 351 351 347 349 350 354 359 356 348 349 344 342 343 345 346 346 344 344 344 348 350 353 354 355 355 357
346 346 346 349 350 350 349 350 350 348 348 346 348 347 347 349 351 353 354 355 349 353 357 359 361 353 351 353 345 344 343 342 341 345 342 344 343 347 350 353 354 355 356
Wind_Speed
10 13 11 13 13 14 14 14 13 13 13 15 15 15 16 16 14 14 13 12 13 13 12 11 11 11 11 11 9 8 7 8 10 9 8 10 10 10 10 9 7 10 12
16 14 12 13 14 14 14 13 13 12 13 13 14 14 15 14 14 13 11 12 11 11 11 9 10 9 9 9 8 7 6 6 7 7 8 9 11 15 15 10 2 8 11
17 14 13 13 13 13 14 13 13 13 13 14 13 13 12 13 13 12 10 9 9 9 9 8 8 8 7 7 7 6 5 6 9 8 8 7 8 11 16 8 7 7 9
16 14 12 11 13 13 11 14 13 13 12 12 13 11 12 9 10 10 10 8 7 7 8 7 6 4 4 5 6 5 5 6 8 8 5 6 6 9 12 9 8 7 9
14 13 12 12 13 14 13 13 14 13 13 13 12 12 13 13 5 5 5 6 5 5 6 6 5 4 3 4 6 4 5 6 6 5 6 6 5 7 9 9 8 10 10
15 13 14 14 13 13 12 12 13 13 12 12 12 12 13 11 7 5 5 6 5 6 5 5 5 5 4 4 6 4 5 7 6 4 4 6 6 9 8 11 12 9 10
14 12 13 11 13 12 11 11 12 12 12 12 12 11 12 11 7 4 7 6 6 6 5 5 6 5 5 4 5 4 3 4 6 4 4 7 7 14 13 12 13 10 12
13 11 12 12 11 11 11 9 10 11 10 11 12 12 14 10 10 11 10 7 6 5 5 6 6 6 6 5 4 3 3 4 7 5 4 6 6 10 12 12 11 10 10
11 10 10 11 10 11 11 10 11 11 11 11 12 13 15 13 9 10 7 6 5 5 6 5 5 4 5 3 4 2 5 6 6 4 5 5 4 5 7 11 10 10 8
9 10 10 9 9 9 9 10 9 10 9 10 12 14 14 13 8 7 6 7 6 5 5 5 5 5 4 5 4 3 7 7 6 5 4 3 3 6 8 9 10 9 8
9 9 9 10 9 8 7 7 8 8 9 10 11 13 12 7 6 6 4 4 6 5 6 6 6 6 4 4 4 4 6 3 5 3 3 6 5 8 11 10 10 8 8
13 12 10 9 9 8 6 5 6 6 5 5 6 7 5 5 5 4 2 4 4 4 6 6 6 6 6 3 3 4 3 5 4 3 3 4 4 5 11 10 8 7 9
13 10 11 9 8 8 7 5 4 4 4 5 7 5 5 4 4 2 2 2 4 3 3 4 4 4 5 3 2 2 3 4 2 2 4 5 7 7 7 9 7 5 7
13 13 11 11 9 9 6 6 6 5 5 4 6 6 5 4 3 2 2 4 4 3 4 3 2 3 4 4 4 4 3 2 2 2 4 7 8 7 6 9 7 5 4
11 12 12 12 11 10 9 6 5 5 5 5 5 5 5 4 3 3 3 3 3 3 3 2 3 4 4 5 5 4 4 4 3 3 3 8 8 5 6 7 7 6 5
11 13 13 13 12 11 10 9 6 6 6 5 5 6 3 3 3 3 3 3 3 3 3 3 3 3 3 5 5 5 3 5 5 4 3 7 7 6 6 6 7 6 4
12 11 13 13 11 11 12 10 7 7 7 7 6 7 4 4 4 3 3 4 4 4 3 3 4 3 3 4 4 4 3 4 5 5 4 3 8 7 5 5 5 4 4
12 13 12 11 11 11 9 7 6 8 8 7 6 6 6 6 4 4 4 3 3 4 4 4 3 3 3 4 3 2 2 4 6 6 5 5 4 4 8 7 5 5 5
14 12 12 12 12 11 8 6 7 9 7 7 6 5 6 6 4 5 4 3 4 4 4 4 4 4 4 4 4 3 3 3 5 5 6 6 6 5 4 7 5 6 6
13 12 12 10 10 9 6 6 5 5 5 6 6 6 7 6 6 5 2 1 4 4 4 5 6 3 3 4 4 4 3 3 4 4 4 4 5 6 5 5 5 6 7
13 13 13 12 10 8 7 7 6 6 6 7 6 7 6 7 5 4 3 3 3 4 4 4 5 5 4 3 3 3 3 4 5 4 3 4 5 6 5 5 4 4 5
15 14 13 13 12 9 7 7 4 7 7 7 6 7 7 6 5 4 4 2 4 4 4 5 5 4 2 3 2 1 2 3 3 3 3 4 5 4 6 7 6 6 5
16 16 15 14 12 10 9 6 5 6 4 5 6 7 6 6 6 5 4 2 4 2 3 3 4 4 3 2 2 2 2 2 2 3 5 4 4 5 5 5 6 7 7
16 15 15 14 13 10 11 9 10 9 8 6 7 6 6 7 6 8 4 3 4 2 2 2 5 3 3 4 3 2 1 2 1 3 4 5 5 6 6 5 6 6 7
14 14 13 13 12 12 11 10 10 10 7 7 6 8 5 5 6 6 5 4 3 2 3 3 4 5 2 2 2 3 1 1 2 2 2 3 4 6 5 5 5 6 7
13 13 13 16 14 12 12 12 12 12 9 7 7 6 5 4 4 5 4 5 4 4 4 4 4 5 3 2 2 3 2 1 3 2 2 2 4 3 4 5 6 6 6
Wind_Direction
152 141 143 131 128 122 119 120 119 121 131 142 138 138 140 138 141 137 130 134 130 123 118 121 108 99 92 86 85 81 83 91 98 104 106 106 104 99 96 107 131 118 122
145 144 144 133 129 119 114 112 113 115 117 131 135 138 141 147 145 141 137 139 140 134 129 121 112 105 95 87 85 84 91 95 100 117 106 116 101 90 63 26 167 118 132
145 144 147 138 134 129 125 123 124 122 124 122 137 134 143 142 149 151 142 150 148 145 144 137 133 116 101 96 94 96 109 110 104 101 106 113 106 95 89 49 313 164 148
144 145 144 145 140 133 132 132 132 130 126 130 129 134 128 113 141 152 148 158 163 157 160 151 147 137 111 110 107 116 114 123 120 114 121 125 104 111 116 144 251 235 163
144 144 142 143 141 138 139 134 137 136 133 135 134 130 129 147 126 149 172 180 169 190 163 165 180 169 154 138 122 130 138 144 134 138 114 136 156 148 164 178 197 234 188
146 147 141 147 147 142 140 138 140 137 136 133 131 127 127 132 187 199 210 209 203 208 190 171 171 182 176 154 133 153 153 151 154 136 156 126 172 153 200 228 210 215 194
148 148 145 150 147 144 141 138 139 142 144 142 134 126 127 139 167 308 268 220 207 197 193 164 175 169 159 151 140 149 177 198 124 157 172 185 187 196 218 227 221 217 187
151 153 149 151 151 150 147 154 149 140 142 139 143 138 128 140 175 188 241 213 201 199 173 158 166 157 161 162 174 184 181 148 146 162 180 161 161 216 218 211 199 184 173
154 155 155 159 162 163 153 161 149 146 154 151 156 146 141 161 192 192 202 193 188 168 152 173 165 176 173 168 166 155 126 127 133 159 160 164 174 211 170 175 187 174 163
155 162 163 165 170 168 160 165 163 157 151 159 161 161 167 181 185 181 174 181 196 180 176 180 180 192 169 147 145 126 118 131 124 139 145 138 206 151 149 144 158 159 160
171 176 176 168 166 169 165 171 153 153 158 164 166 166 169 178 182 177 174 215 189 194 186 191 197 205 191 171 166 143 155 124 145 133 153 136 196 179 156 164 159 167 174
178 185 179 184 176 179 175 171 155 151 154 155 149 142 151 168 181 184 196 236 209 203 186 189 204 211 214 199 182 168 165 136 167 181 143 154 206 202 159 154 160 172 171
182 185 187 191 189 190 176 165 158 156 167 161 152 160 168 168 189 167 220 188 165 140 176 177 182 206 211 216 215 199 151 162 177 197 138 185 209 212 154 144 159 152 145
189 190 186 194 188 204 187 178 171 175 185 177 169 173 174 189 184 186 223 202 168 168 180 186 207 226 205 192 205 173 181 180 196 236 147 196 202 200 178 159 168 167 166
201 198 190 194 191 195 197 182 188 192 193 178 180 183 190 191 175 164 220 201 181 178 181 199 214 224 215 214 197 168 185 186 206 217 177 184 186 194 159 165 173 176 174
200 203 196 196 194 191 200 184 192 194 195 191 198 201 201 198 185 202 223 189 200 224 166 200 220 211 185 205 205 191 184 201 195 221 184 162 184 194 196 192 196 171 188
202 196 197 194 193 199 212 191 189 197 190 201 197 206 178 189 196 193 200 207 203 216 197 196 172 166 172 181 181 177 210 192 197 195 200 184 162 197 229 212 199 187 195
204 194 198 192 188 198 204 197 195 206 193 202 200 199 190 209 185 178 195 207 228 220 204 190 179 185 178 175 157 150 204 200 194 180 185 175 181 199 187 220 219 207 216
197 196 195 194 194 197 204 187 190 215 189 199 198 201 201 206 198 209 203 236 219 190 185 170 157 204 167 156 153 124 157 178 172 168 162 168 172 209 212 156 229 226 231
196 193 196 189 189 186 183 180 180 203 207 199 205 206 210 212 220 220 218 273 216 188 179 184 170 141 154 141 148 137 175 181 187 174 163 174 180 198 207 220 203 202 223
194 187 191 181 178 177 180 189 190 191 203 204 201 206 209 214 220 207 169 171 243 231 213 177 151 152 136 146 162 174 174 185 162 172 197 189 189 211 203 215 225 229 202
187 186 186 183 175 182 186 188 195 199 200 202 197 202 209 204 214 208 210 198 215 210 183 190 184 160 133 164 203 180 178 167 173 180 196 219 214 213 213 213 220 225 239
187 186 185 180 175 180 188 179 171 173 166 182 192 196 200 202 210 199 192 161 187 208 195 200 199 197 153 161 265 311 164 217 206 176 207 223 234 228 232 225 226 222 226
189 181 182 176 172 178 181 186 191 193 190 192 187 190 189 200 203 206 192 158 160 155 218 212 194 187 171 168 180 212 30 359 256 195 204 220 229 245 235 227 230 228 229
178 182 180 177 174 173 178 193 195 203 188 182 176 180 187 183 208 213 219 199 192 206 200 194 164 162 109 161 184 159 167 192 238 280 227 191 228 238 250 248 229 240 233
174 176 180 177 179 179 176 193 205 201 190 182 179 189 191 195 194 209 214 204 183 201 196 181 158 161 162 139 177 168 199 226 205 232 265 229 268 234 243 228 233 233 234